Hourly Data Report for October 04, 2015

All times are specified in Local Standard Time (LST). Add 1 hour to adjust for Daylight Saving Time where and when it is observed.

CLYDE RIVER A
NUNAVUT

70°29'09.000" N
68°31'01.000" W
26.50 m
2400804
71090
YCY

Download Data

Hourly Data (October 2015)
Hourly Data Report for October 4, 2015
Temp Definition
°C
Dew Point Temp Definition
°C
Rel Hum Definition
%
Wind Dir Definition
10's deg

Wind Spd Definition
km/h
Visibility Definition
km
Stn Press Definition
kPa
Hmdx Definition


Wind Chill Definition


Weather Definition


TIME
00:00 Legend Double Dagger -4.1 -5.2 92 30 18 16.1 101.58   -10 LegendNANA
01:00 Legend Double Dagger -4.3 -5.7 90 30 21 16.1 101.54   -11 LegendNANA
02:00 Legend Double Dagger -4.9 -6.0 92 31 22 16.1 101.55   -12 LegendNANA
03:00 Legend Double Dagger -4.9 -6.2 91 30 22 16.1 101.56   -12 LegendNANA
04:00 Legend Double Dagger -4.8 -6.1 91 30 21 16.1 101.56   -11 LegendNANA
05:00 Legend Double Dagger -5.1 -6.4 91 30 22 16.1 101.56   -12 LegendNANA
06:00 Legend Double Dagger -5.1 -6.4 91 31 21 16.1 101.55   -12 LegendNANA
07:00 Legend Double Dagger -4.2 -5.8 89 29 22 16.1 101.52   -11 LegendNANA
08:00 Legend Double Dagger -3.7 -5.4 88 29 21 16.1 101.52   -10 LegendNANA
09:00 Legend Double Dagger -2.2 -4.7 83 29 18 16.1 101.50   -8 LegendNANA
10:00 Legend Double Dagger -1.5 -4.6 79 29 22 16.1 101.48   -7 LegendNANA
11:00 Legend Double Dagger -1.1 -4.5 78 29 26 16.1 101.43   -7 LegendNANA
12:00 Legend Double Dagger -1.1 -4.4 78 32 24 16.1 101.40   -7 LegendNANA
13:00 Legend Double Dagger -0.9 -4.8 75 31 22 16.1 101.40   -7 LegendNANA
14:00 Legend Double Dagger -1.3 -5.0 76 30 24 16.1 101.37   -7 LegendNANA
15:00 Legend Double Dagger -1.6 -4.9 78 30 21 12.9 101.35   -7 LegendNANA
16:00 Legend Double Dagger -2.4 -4.9 83 29 21 16.1 101.32   -8 LegendNANA
17:00 Legend Double Dagger -2.4 -4.9 83 30 26 16.1 101.31   -9 LegendNANA
18:00 Legend Double Dagger -2.7 -4.3 89 30 26 4.8 101.29   -10 Snow
19:00 Legend Double Dagger -3.1 -4.8 88 29 26 16.1 101.28   -10 Snow
20:00 Legend Double Dagger -3.0 -5.0 86 29 24 16.1 101.25   -10 LegendNANA
21:00 Legend Double Dagger -4.3 -6.0 88 30 22 16.1 101.21   -11 LegendNANA
22:00 Legend Double Dagger -5.9 -7.7 87 29 17 16.1 101.16   -12 LegendNANA
23:00 Legend Double Dagger -6.4 -8.3 87 29 21 16.1 101.14   -13 LegendNANA

Notes on Data Quality.

Legend

  • E = Estimated
  • M = Missing
  • NA = Not Available
  • ‡ = Partner data that is not subject to review by the National Climate Archives
Date modified: